Location: East Guldeford
(50.9500°N, 0.7500°E)
Time: 18:32:08
(UTC+00:00)

Cosmos 1818 - Pass Details

Date: 12 May 2021
Orbit: 771 x 802 km, 65.0° (Epoch: 15 June)

Event Time Altitude Azimuth Distance (km) Brightness Sun altitude
Rises 21:51:35 0° 319° (NW) 3,321 8.5 -15.7°
Reaches altitude 10° 21:54:03 10° 321° (NW) 2,388 7.4 -15.9°
Maximum altitude 21:59:33 72° 47° (NE) 844 3.7 -16.3°
Enters shadow 22:02:54 24° 127° (SE) 1,604 4.6 -16.6°
